RH
12 14 16 15 18 18 18 19 18 13 11 16 14 13 14 23 39 45 50 46 49 47 46 46 41 39 37 32 28 27 28 29 28 32 31 31 29 33 32 33 38 39 43 50
16 19 19 20 19 21 20 21 18 15 13 18 17 17 13 13 32 43 38 38 46 47 47 46 44 45 42 38 33 29 27 28 30 33 33 31 29 32 37 36 38 41 43 49
22 22 25 25 20 23 23 26 28 28 20 19 18 16 12 11 14 38 39 32 40 40 42 44 48 48 46 40 35 33 30 32 34 36 37 36 35 38 41 40 41 42 44 49
23 25 25 20 23 26 32 32 37 37 36 32 23 24 16 11 11 21 33 31 32 37 42 42 43 48 47 43 40 39 36 35 37 37 36 35 32 35 38 42 44 44 45 49
26 28 27 25 30 41 48 46 48 48 48 48 31 33 10 12 10 11 16 26 26 31 40 40 40 41 47 47 44 41 39 36 37 38 37 36 35 39 41 44 48 45 45 50
27 28 26 33 37 53 56 63 56 50 52 68 39 35 14 14 10 11 20 25 25 29 32 30 37 37 36 36 37 39 39 36 35 37 36 38 38 42 44 46 48 47 48 52
25 26 27 39 46 44 60 72 87 75 63 60 44 38 23 20 14 13 25 30 49 35 39 38 34 39 38 37 38 38 39 37 39 40 37 40 42 46 46 47 48 51 52 54
45 44 36 37 52 57 61 73 84 96 74 54 45 41 21 20 19 20 28 40 49 42 47 45 43 42 43 45 44 45 46 45 45 47 42 44 48 50 49 49 50 50 54 56
52 41 38 38 46 81 89 92 88 95 80 69 57 45 26 20 18 25 32 54 60 68 57 53 51 50 46 45 47 50 49 47 50 48 46 49 53 53 54 55 56 56 59 59
51 47 34 35 40 71 85 90 93 82 78 61 53 46 33 33 34 26 33 51 56 57 64 57 60 57 57 52 45 42 40 41 46 52 51 52 55 54 56 59 61 64 61 61
44 54 37 39 48 60 73 86 96 97 76 61 57 39 39 42 42 38 34 49 49 55 61 65 62 51 45 43 41 40 39 40 45 50 53 55 55 55 58 63 66 69 62 64
48 51 49 39 39 57 69 76 90 97 94 79 50 38 35 49 46 49 62 60 62 71 70 71 78 57 48 48 43 42 40 42 45 48 50 52 51 59 67 66 66 68 66 67
46 52 63 42 37 52 63 72 74 84 82 70 60 42 44 58 60 81 74 69 73 77 77 79 77 62 54 49 47 46 45 44 47 51 55 57 63 66 68 71 68 70 69 71
43 54 76 77 62 55 64 64 70 81 93 67 45 59 72 72 80 83 94 93 85 84 80 93 83 63 57 50 47 50 51 51 51 52 56 64 66 68 68 70 75 73 74 68
39 48 53 61 57 57 63 66 90 97 83 73 61 74 83 84 77 86 89 96 98 92 86 85 85 66 53 51 47 48 55 59 58 59 61 66 68 71 70 72 74 74 71 68
33 55 56 54 56 60 65 95 97 99 93 77 74 74 86 83 80 77 86 92 97 95 89 71 63 58 53 50 51 48 49 55 60 61 62 68 74 76 77 78 76 75 74 70
50 59 61 61 62 66 95 96 96 98 98 90 84 80 79 81 91 90 88 91 95 96 93 85 68 60 49 46 47 48 47 47 52 62 67 69 76 80 78 80 77 80 79 75
52 59 69 73 72 81 93 78 84 96 98 97 93 96 90 83 88 92 93 96 97 96 95 87 77 62 55 49 48 45 46 48 49 55 64 75 77 81 81 83 80 84 83 77
66 75 86 87 90 70 92 80 83 89 98 96 98 96 93 92 92 89 90 88 86 87 82 76 76 68 62 54 51 48 43 49 47 48 54 60 74 80 84 83 84 85 86 83
72 84 78 79 94 97 97 82 67 75 96 94 98 98 96 95 95 94 92 92 88 84 77 75 69 64 62 57 52 51 49 45 46 48 49 54 60 75 83 87 87 81 84 86
74 70 74 78 90 97 95 77 68 80 93 98 99 99 98 95 94 89 88 89 83 74 70 71 66 62 56 53 48 47 48 45 47 48 50 50 53 64 78 92 96 91 88 88
92 92 85 82 94 89 85 74 79 89 93 98 98 99 98 98 95 94 94 96 88 76 71 67 65 63 57 51 49 46 46 45 44 46 48 50 52 55 62 73 79 84 90 90
92 93 94 95 96 92 86 85 80 81 90 89 96 98 97 96 96 97 93 89 83 81 75 68 63 59 54 50 47 45 47 47 45 45 47 49 54 54 57 64 76 82 86 97
78 82 86 89 96 85 85 77 75 74 86 85 91 97 98 98 98 96 91 83 79 75 71 69 65 58 54 51 47 45 48 52 52 50 52 51 55 56 60 61 79 88 94 97
75 81 83 87 82 76 80 77 74 78 79 78 78 93 96 97 97 94 90 86 80 74 71 67 63 56 55 54 48 47 49 56 56 54 53 54 57 60 59 61 69 89 97 99
73 78 83 85 81 82 76 70 71 77 77 79 72 85 97 95 96 97 92 84 80 77 71 67 66 66 61 53 49 51 52 56 56 56 51 54 55 61 66 65 65 72 83 97